Simultaneous Nadir Overpasses (SNOs) Predictions

Prediction of SNOs between GOES-17 and NOAA-20 Satellite Orbit:

Table of predicted SNOs for the next 14.0 days since TLE Epoch: 5/25/2024
Index Date Time (GOES-17) GOES-17 Lat,Lon NOAA-20 Lat,Lon Distance(km) Time Diff (sec)
1 05/25/2024 20:34:08 0.01,-104.71 -0.61,-107.54 322.21 80
2 05/26/2024 20:18:01 0.00,-104.71 0.38,-102.99 195.07 80
3 05/28/2024 08:37:05 -0.00,-104.71 0.81,-108.25 404.36 80
4 05/29/2024 08:20:58 0.01,-104.71 -0.24,-103.72 112.94 80
5 05/30/2024 20:40:11 -0.00,-104.70 -0.94,-109.01 490.73 80
6 05/31/2024 20:24:03 -0.01,-104.70 0.05,-104.47 26.80 80
7 06/03/2024 08:24:20 0.00,-104.71 0.13,-105.19 54.82 80
8 06/04/2024 08:08:14 0.00,-104.71 -0.93,-100.66 462.49 80
9 06/05/2024 20:27:25 0.01,-104.70 -0.29,-105.94 141.47 80
10 06/06/2024 20:11:18 0.01,-104.70 0.77,-101.41 375.94 80
